Regional Weather Roundup
Issued by NWS

Home | Current Version | Previous Version | Text Only | Print | Product List | Glossary Off
Versions: 1 2 3 4 5 6 7 8 9 10 11 12 13 14 15 16 17 18 19 20 21 22 23 24 25 26 27 28 29 30 31 32 33 34 35 36 37 38 39 40 41 42 43 44 45 46 47 48 49 50

000
ASUS45 KBOU 190807
RWRCO

WEATHER ROUNDUP FOR COLORADO
NATIONAL WEATHER SERVICE DENVER/BOULDER CO
100 AM MST SUN FEB 19 2017

NOTE: "FAIR" INDICATES FEW OR NO CLOUDS BELOW 12000 FEET WITH NO
SIGNIFICANT WEATHER AND/OR OBSTRUCTIONS TO VISIBILITY.

COZ001>005-013-030-031-190900-
...NORTHWEST COLORADO...

CITY           SKY/WX    TMP DP  RH WIND       PRES   REMARKS
CRAIG          FAIR      25  22  88 CALM      29.75S
HAYDEN         FAIR      30  25  80 E8        29.74S WCI  23
MEEKER         FAIR      29  27  92 CALM      29.74S
MOUNT WERNER   NOT AVBL
STEAMBOAT SPGS NOT AVBL
WALDEN         NOT AVBL
$$

COZ006>008-011-190900-
...WEST CENTRAL VALLEYS...

CITY           SKY/WX    TMP DP  RH WIND       PRES   REMARKS
GRAND JUNCTION CLOUDY    38  37  97 SE6       29.74R
MONTROSE       FAIR      33  31  92 SE8       29.78S WCI  26
EAGLE          FAIR      31  28  89 SE3       29.78S
RIFLE          FAIR      32  30  92 SE3       29.75R
DELTA          FAIR      39  36  89 E7        29.77R
NUCLA          CLOUDY    37  34  87 E5        29.79S
$$

COZ017>023-064>068-190900-
...SOUTHWEST COLORADO...

CITY           SKY/WX    TMP DP  RH WIND       PRES   REMARKS
DURANGO        MOCLDY    37  27  67 NE5       29.81S
CORTEZ         CLOUDY    47  29  49 E10       29.75F
PAGOSA SPRINGS CLOUDY    37  28  71 CALM      29.85R
TELLURIDE      CLOUDY    39  15  37 CALM      29.84S
WOLF CREEK PAS FAIR      23  19  86 S23G32    29.95F WCI   7
$$

COZ009-010-012-014-032>034-037-058>063-190900-
...CENTRAL COLORADO...

CITY           SKY/WX    TMP DP  RH WIND       PRES   REMARKS
ASPEN          FAIR      30  26  85 SE6       29.76S WCI  24
BUENA VISTA    FAIR      40  29  64 SE14G22   29.79S
COPPER MTN     FAIR      32   9  37 S20       29.86F WCI  20
BERTHOUD PASS  FAIR      23  12  63 W15       29.87F WCI  10
COTTONWOOD PAS FAIR      41  16  36 W7        29.84F
GUNNISON       FAIR      23  20  88 VRB3      29.82S
KREMMLING      FAIR      32  28  86 CALM      29.78S
LEADVILLE      FAIR      32  13  45 SE5       29.81R WCI  27
MONARCH PASS   MOCLDY    27  23  86 SW25      30.01R WCI  11
SALIDA         FAIR      46  31  56 S14G26    29.87R
SUNLIGHT       NOT AVBL
WILKERSON PASS FAIR      30  21  69 SW5       29.90F WCI  25
$$

COZ069>075-190900-
...SAN LUIS VALLEY/SANGRE DE CRISTO MOUNTAINS...

CITY           SKY/WX    TMP DP  RH WIND       PRES   REMARKS
ALAMOSA        FAIR      33  29  85 SE10      29.82S WCI  25
LA VETA PASS   FAIR      30  23  74 NE24G43   29.85F WCI  16
SAGUACHE       FAIR      32  28  86 CALM      29.84F
$$

COZ035-036-038>040-190900-
...NORTHERN COLORADO FRONT RANGE...

CITY           SKY/WX    TMP DP  RH WIND       PRES   REMARKS
DENVER INTL AP FAIR      43  21  41 S5        29.65F
DMNS CITY PARK   N/A     42  23  46 E8        29.66R
AURORA         PTCLDY    42  22  43 S13       29.67S
FRONT RANGE AP FAIR      48  23  37 S18       29.66F
ERIE MUNI ARPT FAIR      34  24  67 CALM      29.65F
BOULDER MUN AP FAIR      43  23  45 CALM      29.65S
CENTENNIAL     FAIR      44  22  41 SE13      29.67F
BROOMFIELD     FAIR      46  21  36 W3        29.67S
FORT COLLINS   FAIR      39  23  52 N6        29.65F
LONGMONT       FAIR      38  25  58 CALM      29.67F
$$

COZ041-046-047-076>085-087-088-190900-
...PIKES PEAK/PALMER DIVIDE AND SOUTHERN FOOTHILLS...

CITY           SKY/WX    TMP DP  RH WIND       PRES   REMARKS
COLO. SPRINGS  FAIR      36  19  50 NE8       29.74S
A. F. ACADEMY  FAIR      28  19  68 N7        29.73F WCI  21
SCHRIEVER AFB  FAIR      40  21  46 SE13      29.74S
ELLICOTT       FAIR     N/A N/A N/A S14       29.73S
FALCON         NOT AVBL
FORT CARSON    FAIR      37  21  53 NW9       29.72S
LIMON          FAIR      45  26  47 VRB5      29.72F
MONUMENT HILL  FAIR      36  21  55 S15       29.75S
TRINIDAD       FAIR      52  27  38 SW6       29.74F
$$

COZ042>045-048>051-090-091-190900-
...NORTHEAST COLORADO...

CITY           SKY/WX    TMP DP  RH WIND       PRES   REMARKS
GREELEY ARPT   FAIR      35  21  56 NW3       29.65F
AKRON          FAIR      49  24  37 S15       29.66F
BURLINGTON     FAIR      49  32  52 S21       29.71S
WRAY           NOT AVBL
STERLING       FAIR      41  27  56 CALM      29.64F
HOLYOKE        FAIR      46  30  53 SE8       29.68F
FORT MORGAN    FAIR      44  21  40 CALM      29.65F
$$

COZ086-089-092>099-190900-
...SOUTHEAST COLORADO...

CITY           SKY/WX    TMP DP  RH WIND       PRES   REMARKS
PUEBLO         FAIR      36  24  62 S5        29.68F
LA JUNTA       FAIR      52  30  43 S10       29.71F
LAMAR          FAIR      50  34  54 S16       29.72F
SPRINGFIELD      N/A     43  36  76 S9        29.78S
$$



USA.gov is the U.S. government's official web portal to all federal, state and local government web resources and services.